Tracking 30744 objects as of 23-Jun-2025
HD Live streaming from Space Station
objects crossing your sky now

SL-24 DEB

Track SL-24 DEB now!
10-day predictions


NORAD ID: 36601
Int'l Code: 2010-028D
Perigee: 715.3 km
Apogee: 741.0 km
Inclination: 98.3 °
Period: 99.2 minutes
Semi major axis: 7099 km
RCS: 5.771 m2 (large)
Launch date: June 15, 2010
Source: Commonwealth of Independent States (former USSR) (CIS)
Launch site: Orenburg, Russia (OREN)

Note: This is SATELLITE DEBRIS
Your satellite tracking list
Your tracking list is empty




NASA's NSSDC Master Catalog

Two Line Element Set (TLE):
1 36601U 10028D   25173.82848038  .00000347  00000-0  97980-4 0  9997
2 36601  98.3254  13.5365 0018075  42.7659 317.4938 14.51414413793716
Source of the keplerian elements: AFSPC